Time,TemperatureF,DewpointF,PressureIn,WindDirection,WindDirectionDegrees,WindSpeedMPH,WindSpeedGustMPH,Humidity,HourlyPrecipIn,Conditions,Clouds,dailyrainin,SoftwareType,DateUTC
2013-03-07 00:12:00,32.0,25.0,30.23,North,5,1.0,11.0,75,0.00,,,-99.99,,2013-03-07 05:12:00,
2013-03-07 00:22:00,32.0,25.0,30.23,East,81,2.0,6.0,76,0.00,,,-99.99,,2013-03-07 05:22:00,
2013-03-07 00:32:00,32.0,26.0,30.23,ENE,64,4.0,8.0,77,0.00,,,-99.99,,2013-03-07 05:32:00,
2013-03-07 00:42:00,32.0,26.0,30.23,ENE,64,4.0,8.0,77,0.00,,,-99.99,,2013-03-07 05:42:00,
2013-03-07 00:52:00,32.0,26.0,30.23,North,11,6.0,8.0,77,0.00,,,-99.99,,2013-03-07 05:52:00,
2013-03-07 01:01:00,32.0,26.0,30.23,ENE,75,1.0,9.0,78,0.00,,,-99.99,,2013-03-07 06:01:00,
2013-03-07 01:11:00,32.0,26.0,30.23,ENE,75,1.0,9.0,78,0.00,,,-99.99,,2013-03-07 06:11:00,
2013-03-07 01:21:00,32.0,26.0,30.23,NE,48,2.0,12.0,79,0.00,,,-99.99,,2013-03-07 06:21:00,
2013-03-07 01:32:00,32.0,25.0,30.24,SSE,147,2.0,11.0,75,0.00,,,-99.99,,2013-03-07 06:32:00,
2013-03-07 01:42:00,32.0,25.0,30.24,SSE,147,2.0,11.0,75,0.00,,,-99.99,,2013-03-07 06:42:00,
2013-03-07 01:52:00,33.0,24.0,30.23,ENE,60,6.0,22.0,70,0.00,,,-99.99,,2013-03-07 06:52:00,
2013-03-07 02:01:00,33.0,24.0,30.22,East,81,4.0,14.0,70,0.00,,,-99.99,,2013-03-07 07:01:00,
2013-03-07 02:11:00,33.0,24.0,30.22,East,81,4.0,14.0,70,0.00,,,-99.99,,2013-03-07 07:11:00,
2013-03-07 02:22:00,33.0,24.0,30.22,NNE,23,4.0,11.0,70,0.00,,,-99.99,,2013-03-07 07:22:00,
2013-03-07 02:32:00,33.0,25.0,30.21,ENE,70,4.0,12.0,71,0.00,,,-99.99,,2013-03-07 07:32:00,
2013-03-07 02:43:00,33.0,25.0,30.21,ENE,70,4.0,12.0,71,0.00,,,-99.99,,2013-03-07 07:43:00,
2013-03-07 02:52:00,33.0,25.0,30.20,NNE,14,8.0,15.0,71,0.00,,,-99.99,,2013-03-07 07:52:00,
2013-03-07 03:03:00,33.0,25.0,30.20,SE,139,4.0,15.0,72,0.00,,,-99.99,,2013-03-07 08:03:00,
2013-03-07 03:12:00,33.0,25.0,30.20,SE,139,4.0,15.0,72,0.00,,,-99.99,,2013-03-07 08:12:00,
2013-03-07 03:23:00,33.0,25.0,30.19,East,91,5.0,8.0,73,0.00,,,-99.99,,2013-03-07 08:23:00,
2013-03-07 03:33:00,33.0,25.0,30.19,NE,37,9.0,18.0,73,0.00,,,-99.99,,2013-03-07 08:33:00,
2013-03-07 03:44:00,33.0,25.0,30.19,NE,37,9.0,18.0,73,0.00,,,-99.99,,2013-03-07 08:44:00,
2013-03-07 03:54:00,33.0,25.0,30.19,North,352,5.0,13.0,73,0.00,,,-99.99,,2013-03-07 08:54:00,
2013-03-07 04:03:00,33.0,25.0,30.18,ENE,62,5.0,16.0,73,0.00,,,-99.99,,2013-03-07 09:03:00,
2013-03-07 04:13:00,33.0,25.0,30.18,ENE,62,5.0,16.0,73,0.00,,,-99.99,,2013-03-07 09:13:00,
2013-03-07 04:23:00,33.0,26.0,30.17,NNE,12,0.0,15.0,74,0.00,,,-99.99,,2013-03-07 09:23:00,
2013-03-07 04:33:00,33.0,26.0,30.16,South,177,2.0,13.0,74,0.00,,,-99.99,,2013-03-07 09:33:00,
2013-03-07 04:43:00,33.0,26.0,30.16,South,177,2.0,13.0,74,0.00,,,-99.99,,2013-03-07 09:43:00,
2013-03-07 04:53:00,33.0,26.0,30.16,North,1,5.0,13.0,74,0.00,,,-99.99,,2013-03-07 09:53:00,
2013-03-07 05:03:00,33.0,26.0,30.16,ENE,64,4.0,17.0,75,0.00,,,-99.99,,2013-03-07 10:03:00,
2013-03-07 05:13:00,33.0,26.0,30.16,ENE,64,4.0,17.0,75,0.00,,,-99.99,,2013-03-07 10:13:00,
2013-03-07 05:23:00,33.0,26.0,30.17,NE,45,6.0,18.0,74,0.00,,,-99.99,,2013-03-07 10:23:00,
2013-03-07 05:33:00,33.0,26.0,30.17,ESE,118,3.0,14.0,75,0.00,,,-99.99,,2013-03-07 10:33:00,
2013-03-07 05:43:00,33.0,26.0,30.17,ESE,118,3.0,14.0,75,0.00,,,-99.99,,2013-03-07 10:43:00,
2013-03-07 05:52:00,33.0,26.0,30.18,East,86,5.0,19.0,75,0.00,,,-99.99,,2013-03-07 10:52:00,
2013-03-07 06:03:00,33.0,26.0,30.19,NNE,18,8.0,17.0,74,0.00,,,-99.99,,2013-03-07 11:03:00,
2013-03-07 06:12:00,33.0,26.0,30.19,NNE,18,8.0,17.0,74,0.00,,,-99.99,,2013-03-07 11:12:00,
2013-03-07 06:23:00,33.0,26.0,30.20,East,91,12.0,15.0,74,0.00,,,-99.99,,2013-03-07 11:23:00,
2013-03-07 06:33:00,33.0,25.0,30.22,ESE,105,6.0,14.0,73,0.00,,,-99.99,,2013-03-07 11:33:00,
2013-03-07 06:43:00,33.0,25.0,30.22,ESE,105,6.0,14.0,73,0.00,,,-99.99,,2013-03-07 11:43:00,
2013-03-07 06:54:00,33.0,25.0,30.21,NE,47,7.0,19.0,73,0.00,,,-99.99,,2013-03-07 11:54:00,
2013-03-07 07:03:00,33.0,26.0,30.21,East,86,2.0,15.0,74,0.00,,,-99.99,,2013-03-07 12:03:00,
2013-03-07 07:12:00,33.0,26.0,30.21,East,86,2.0,15.0,74,0.00,,,-99.99,,2013-03-07 12:12:00,
2013-03-07 07:23:00,33.0,26.0,30.19,East,81,4.0,14.0,74,0.00,,,-99.99,,2013-03-07 12:23:00,
2013-03-07 07:33:00,33.0,26.0,30.19,WNW,301,8.0,21.0,74,0.00,,,-99.99,,2013-03-07 12:33:00,
2013-03-07 07:43:00,33.0,26.0,30.19,WNW,301,8.0,21.0,74,0.00,,,-99.99,,2013-03-07 12:43:00,
2013-03-07 07:53:00,33.0,26.0,30.20,SE,125,2.0,15.0,74,0.00,,,-99.99,,2013-03-07 12:53:00,
2013-03-07 08:03:00,33.0,26.0,30.19,East,86,5.0,24.0,75,0.00,,,-99.99,,2013-03-07 13:03:00,
2013-03-07 08:12:00,33.0,26.0,30.19,East,86,5.0,24.0,75,0.00,,,-99.99,,2013-03-07 13:12:00,
2013-03-07 08:23:00,33.0,26.0,30.20,ESE,112,3.0,12.0,76,0.00,,,-99.99,,2013-03-07 13:23:00,
2013-03-07 08:32:00,33.0,26.0,30.20,NE,55,5.0,18.0,75,0.00,,,-99.99,,2013-03-07 13:32:00,
2013-03-07 08:42:00,33.0,26.0,30.20,NE,55,5.0,18.0,75,0.00,,,-99.99,,2013-03-07 13:42:00,
2013-03-07 08:53:00,33.0,26.0,30.20,NNW,344,12.0,29.0,74,0.00,,,-99.99,,2013-03-07 13:53:00,
2013-03-07 09:02:00,33.0,26.0,30.21,NNE,27,6.0,21.0,74,0.00,,,-99.99,,2013-03-07 14:02:00,
2013-03-07 09:12:00,33.0,26.0,30.21,NNE,27,6.0,21.0,74,0.00,,,-99.99,,2013-03-07 14:12:00,
2013-03-07 09:23:00,33.0,25.0,30.20,East,91,2.0,24.0,73,0.00,,,-99.99,,2013-03-07 14:23:00,
2013-03-07 09:33:00,33.0,25.0,30.20,East,91,4.0,18.0,73,0.00,,,-99.99,,2013-03-07 14:33:00,
2013-03-07 09:42:00,33.0,25.0,30.20,East,91,4.0,18.0,73,0.00,,,-99.99,,2013-03-07 14:42:00,
2013-03-07 09:54:00,33.0,25.0,30.21,NNE,12,2.0,16.0,71,0.00,,,-99.99,,2013-03-07 14:54:00,
2013-03-07 10:03:00,33.0,25.0,30.20,NW,312,4.0,24.0,71,0.00,,,-99.99,,2013-03-07 15:03:00,
2013-03-07 10:12:00,33.0,25.0,30.20,NW,312,4.0,24.0,71,0.00,,,-99.99,,2013-03-07 15:12:00,
2013-03-07 10:23:00,33.0,24.0,30.19,NNE,32,2.0,23.0,70,0.00,,,-99.99,,2013-03-07 15:23:00,
2013-03-07 10:33:00,33.0,24.0,30.19,ESE,113,6.0,16.0,70,0.00,,,-99.99,,2013-03-07 15:33:00,
2013-03-07 10:42:00,33.0,24.0,30.19,ESE,113,6.0,16.0,70,0.00,,,-99.99,,2013-03-07 15:42:00,
2013-03-07 10:53:00,33.0,24.0,30.19,South,188,4.0,20.0,69,0.00,,,-99.99,,2013-03-07 15:53:00,
2013-03-07 11:02:00,34.0,25.0,30.19,NE,55,10.0,25.0,69,0.00,,,-99.99,,2013-03-07 16:02:00,
2013-03-07 11:13:00,34.0,25.0,30.19,NE,55,10.0,25.0,69,0.00,,,-99.99,,2013-03-07 16:13:00,
2013-03-07 11:24:00,34.0,25.0,30.19,NNW,332,2.0,18.0,69,0.00,,,-99.99,,2013-03-07 16:24:00,
2013-03-07 11:33:00,34.0,25.0,30.19,NE,41,13.0,20.0,70,0.00,,,-99.99,,2013-03-07 16:33:00,
2013-03-07 11:43:00,34.0,25.0,30.19,NE,41,13.0,20.0,70,0.00,,,-99.99,,2013-03-07 16:43:00,
2013-03-07 11:52:00,34.0,26.0,30.18,SE,143,1.0,24.0,71,0.00,,,-99.99,,2013-03-07 16:52:00,
2013-03-07 12:02:00,34.0,26.0,30.18,ENE,60,6.0,24.0,71,0.00,,,-99.99,,2013-03-07 17:02:00,
2013-03-07 12:12:00,34.0,26.0,30.18,ENE,60,6.0,24.0,71,0.00,,,-99.99,,2013-03-07 17:12:00,
2013-03-07 12:23:00,34.0,26.0,30.17,East,86,0.0,16.0,71,0.00,,,-99.99,,2013-03-07 17:23:00,
2013-03-07 12:33:00,35.0,26.0,30.16,ENE,66,9.0,25.0,70,0.00,,,-99.99,,2013-03-07 17:33:00,
2013-03-07 12:43:00,35.0,26.0,30.16,ENE,66,9.0,25.0,70,0.00,,,-99.99,,2013-03-07 17:43:00,
2013-03-07 12:54:00,35.0,26.0,30.15,East,91,7.0,23.0,70,0.00,,,-99.99,,2013-03-07 17:54:00,
2013-03-07 13:04:00,35.0,26.0,30.15,ENE,74,16.0,23.0,69,0.00,,,-99.99,,2013-03-07 18:04:00,
2013-03-07 13:12:00,35.0,26.0,30.15,ENE,74,16.0,23.0,69,0.00,,,-99.99,,2013-03-07 18:12:00,
2013-03-07 13:22:00,36.0,26.0,30.15,NNE,16,14.0,17.0,67,0.00,,,-99.99,,2013-03-07 18:22:00,
2013-03-07 13:42:00,36.0,26.0,30.14,North,2,5.0,17.0,67,0.00,,,-99.99,,2013-03-07 18:42:00,
2013-03-07 13:53:00,37.0,27.0,30.14,North,349,3.0,17.0,66,0.00,,,-99.99,,2013-03-07 18:53:00,
2013-03-07 14:03:00,37.0,26.0,30.14,ESE,123,0.0,11.0,65,0.00,,,-99.99,,2013-03-07 19:03:00,
2013-03-07 14:12:00,37.0,26.0,30.14,ESE,123,0.0,11.0,65,0.00,,,-99.99,,2013-03-07 19:12:00,
2013-03-07 14:23:00,38.0,27.0,30.13,NNW,343,0.0,12.0,64,0.00,,,-99.99,,2013-03-07 19:23:00,
2013-03-07 14:35:00,38.0,26.0,30.13,South,172,3.0,26.0,62,0.00,,,-99.99,,2013-03-07 19:35:00,
2013-03-07 14:43:00,38.0,26.0,30.13,South,172,3.0,26.0,62,0.00,,,-99.99,,2013-03-07 19:43:00,
2013-03-07 14:52:00,38.0,26.0,30.12,WSW,258,1.0,18.0,61,0.00,,,-99.99,,2013-03-07 19:52:00,
2013-03-07 15:02:00,38.0,26.0,30.12,ENE,62,9.0,18.0,61,0.00,,,-99.99,,2013-03-07 20:02:00,
2013-03-07 15:13:00,38.0,26.0,30.12,ENE,62,9.0,18.0,61,0.00,,,-99.99,,2013-03-07 20:13:00,
2013-03-07 15:22:00,38.0,26.0,30.12,NE,38,1.0,21.0,61,0.00,,,-99.99,,2013-03-07 20:22:00,
2013-03-07 15:33:00,37.0,26.0,30.12,SE,127,1.0,18.0,63,0.00,,,-99.99,,2013-03-07 20:33:00,
2013-03-07 15:43:00,37.0,26.0,30.12,SE,127,1.0,18.0,63,0.00,,,-99.99,,2013-03-07 20:43:00,
2013-03-07 15:54:00,37.0,26.0,30.12,North,356,11.0,20.0,63,0.00,,,-99.99,,2013-03-07 20:54:00,
2013-03-07 16:03:00,37.0,26.0,30.12,SE,127,1.0,22.0,63,0.00,,,-99.99,,2013-03-07 21:03:00,
2013-03-07 16:12:00,37.0,26.0,30.12,SE,127,1.0,22.0,63,0.00,,,-99.99,,2013-03-07 21:12:00,
2013-03-07 16:23:00,37.0,26.0,30.12,NE,38,7.0,18.0,63,0.00,,,-99.99,,2013-03-07 21:23:00,
2013-03-07 16:33:00,37.0,26.0,30.13,NW,323,10.0,18.0,64,0.00,,,-99.99,,2013-03-07 21:33:00,
2013-03-07 16:43:00,37.0,26.0,30.13,NW,323,10.0,18.0,64,0.00,,,-99.99,,2013-03-07 21:43:00,
2013-03-07 16:52:00,36.0,25.0,30.13,SE,126,2.0,17.0,65,0.00,,,-99.99,,2013-03-07 21:52:00,
2013-03-07 17:02:00,36.0,26.0,30.13,SSE,166,1.0,19.0,66,0.00,,,-99.99,,2013-03-07 22:02:00,
2013-03-07 17:12:00,36.0,26.0,30.13,SSE,166,1.0,19.0,66,0.00,,,-99.99,,2013-03-07 22:12:00,
2013-03-07 17:23:00,36.0,25.0,30.13,NE,35,8.0,20.0,65,0.00,,,-99.99,,2013-03-07 22:23:00,
2013-03-07 17:32:00,35.0,25.0,30.13,NE,53,5.0,21.0,67,0.00,,,-99.99,,2013-03-07 22:32:00,
2013-03-07 17:43:00,35.0,25.0,30.13,NE,53,5.0,21.0,67,0.00,,,-99.99,,2013-03-07 22:43:00,
2013-03-07 17:53:00,35.0,26.0,30.13,SSW,208,4.0,16.0,68,0.00,,,-99.99,,2013-03-07 22:53:00,
2013-03-07 18:03:00,35.0,26.0,30.13,North,350,5.0,18.0,68,0.00,,,-99.99,,2013-03-07 23:03:00,
2013-03-07 18:13:00,35.0,26.0,30.13,North,350,5.0,18.0,68,0.00,,,-99.99,,2013-03-07 23:13:00,
2013-03-07 18:22:00,34.0,25.0,30.13,NNW,347,3.0,15.0,69,0.00,,,-99.99,,2013-03-07 23:22:00,
2013-03-07 18:34:00,34.0,25.0,30.13,NE,39,6.0,18.0,70,0.00,,,-99.99,,2013-03-07 23:34:00,
2013-03-07 18:43:00,34.0,25.0,30.13,NE,39,6.0,18.0,70,0.00,,,-99.99,,2013-03-07 23:43:00,
2013-03-07 18:54:00,34.0,26.0,30.13,NW,319,1.0,16.0,71,0.00,,,-99.99,,2013-03-07 23:54:00,
2013-03-07 19:04:00,34.0,26.0,30.13,NW,320,4.0,13.0,72,0.00,,,-99.99,,2013-03-08 00:04:00,
2013-03-07 19:13:00,34.0,26.0,30.13,NW,320,4.0,13.0,72,0.00,,,-99.99,,2013-03-08 00:13:00,
2013-03-07 19:23:00,34.0,26.0,30.12,NNW,344,4.0,15.0,72,0.00,,,-99.99,,2013-03-08 00:23:00,
2013-03-07 19:34:00,33.0,25.0,30.12,NE,39,8.0,17.0,72,0.00,,,-99.99,,2013-03-08 00:34:00,
2013-03-07 19:44:00,33.0,25.0,30.12,NE,39,8.0,17.0,72,0.00,,,-99.99,,2013-03-08 00:44:00,
2013-03-07 19:54:00,33.0,25.0,30.12,North,350,17.0,17.0,73,0.00,,,-99.99,,2013-03-08 00:54:00,
2013-03-07 20:02:00,33.0,26.0,30.11,SSW,211,2.0,20.0,74,0.00,,,-99.99,,2013-03-08 01:02:00,
2013-03-07 20:11:00,33.0,26.0,30.11,SSW,211,2.0,20.0,74,0.00,,,-99.99,,2013-03-08 01:11:00,
2013-03-07 20:22:00,33.0,25.0,30.11,ENE,74,8.0,18.0,73,0.00,,,-99.99,,2013-03-08 01:22:00,
2013-03-07 20:33:00,33.0,26.0,30.11,NE,48,2.0,20.0,74,0.00,,,-99.99,,2013-03-08 01:33:00,
2013-03-07 20:42:00,33.0,26.0,30.11,NE,48,2.0,20.0,74,0.00,,,-99.99,,2013-03-08 01:42:00,
2013-03-07 20:52:00,33.0,26.0,30.11,NNW,345,4.0,23.0,74,0.00,,,-99.99,,2013-03-08 01:52:00,
2013-03-07 21:02:00,33.0,26.0,30.11,NNW,336,3.0,17.0,74,0.00,,,-99.99,,2013-03-08 02:02:00,
2013-03-07 21:12:00,33.0,26.0,30.11,North,5,5.0,19.0,75,0.00,,,-99.99,,2013-03-08 02:12:00,
2013-03-07 21:22:00,33.0,26.0,30.11,North,5,5.0,19.0,75,0.00,,,-99.99,,2013-03-08 02:22:00,
2013-03-07 21:32:00,33.0,26.0,30.11,NE,41,14.0,18.0,75,0.00,,,-99.99,,2013-03-08 02:32:00,
2013-03-07 21:42:00,33.0,26.0,30.11,NE,41,14.0,18.0,75,0.00,,,-99.99,,2013-03-08 02:42:00,
2013-03-07 21:53:00,33.0,26.0,30.11,South,178,9.0,18.0,75,0.00,,,-99.99,,2013-03-08 02:53:00,
2013-03-07 22:02:00,32.0,25.0,30.10,NE,43,4.0,17.0,76,0.00,,,-99.99,,2013-03-08 03:02:00,
2013-03-07 22:12:00,32.0,25.0,30.10,NE,43,4.0,17.0,76,0.00,,,-99.99,,2013-03-08 03:12:00,
2013-03-07 22:22:00,32.0,25.0,30.10,SSE,150,3.0,17.0,76,0.00,,,-99.99,,2013-03-08 03:22:00,
2013-03-07 22:33:00,32.0,25.0,30.10,NNW,336,3.0,22.0,76,0.00,,,-99.99,,2013-03-08 03:33:00,
2013-03-07 22:43:00,32.0,25.0,30.10,NNW,336,3.0,22.0,76,0.00,,,-99.99,,2013-03-08 03:43:00,
2013-03-07 22:53:00,32.0,25.0,30.10,North,5,0.0,23.0,76,0.00,,,-99.99,,2013-03-08 03:53:00,
2013-03-07 23:02:00,32.0,25.0,30.09,ENE,73,8.0,18.0,76,0.00,,,-99.99,,2013-03-08 04:02:00,
2013-03-07 23:11:00,32.0,25.0,30.09,ENE,73,8.0,18.0,76,0.00,,,-99.99,,2013-03-08 04:11:00,
2013-03-07 23:22:00,32.0,25.0,30.09,ENE,73,8.0,18.0,76,0.00,,,-99.99,,2013-03-08 04:22:00,
2013-03-07 23:32:00,32.0,26.0,30.08,ESE,111,7.0,18.0,77,0.00,,,-99.99,,2013-03-08 04:32:00,
2013-03-07 23:42:00,32.0,26.0,30.08,ESE,111,7.0,18.0,77,0.00,,,-99.99,,2013-03-08 04:42:00,
2013-03-07 23:52:00,32.0,26.0,30.08,NNW,347,6.0,19.0,77,0.00,,,-99.99,,2013-03-08 04:52:00,